Time,TemperatureF,DewpointF,PressureIn,WindDirection,WindDirectionDegrees,WindSpeedMPH,WindSpeedGustMPH,Humidity,HourlyPrecipIn,Conditions,Clouds,dailyrainin,SoftwareType,DateUTC
2013-06-03 00:03:00,63.0,61.0,29.90,ESE,122,1.0,11.0,94,0.00,,,0.00,weatherlink.com 1.10,2013-06-03 04:03:00,
2013-06-03 00:18:00,62.8,61.0,29.90,SE,128,10.0,10.0,94,0.00,,,0.00,weatherlink.com 1.10,2013-06-03 04:18:00,
2013-06-03 00:33:00,63.1,61.0,29.91,SE,131,9.0,14.0,94,0.00,,,0.00,weatherlink.com 1.10,2013-06-03 04:33:00,
2013-06-03 00:48:00,63.2,62.0,29.90,SSW,208,3.0,12.0,95,0.00,,,0.00,weatherlink.com 1.10,2013-06-03 04:48:00,
2013-06-03 01:03:00,63.3,62.0,29.90,SW,234,1.0,13.0,95,0.00,,,0.00,weatherlink.com 1.10,2013-06-03 05:03:00,
2013-06-03 01:18:00,63.4,62.0,29.89,ESE,109,0.0,12.0,95,0.00,,,0.00,weatherlink.com 1.10,2013-06-03 05:18:00,
2013-06-03 01:33:00,63.6,62.0,29.89,NW,305,3.0,10.0,95,0.01,,,0.01,weatherlink.com 1.10,2013-06-03 05:33:00,
2013-06-03 01:48:00,63.6,62.0,29.89,SE,125,5.0,10.0,95,0.01,,,0.01,weatherlink.com 1.10,2013-06-03 05:48:00,
2013-06-03 02:03:00,63.7,62.0,29.88,West,281,3.0,8.0,95,0.01,,,0.01,weatherlink.com 1.10,2013-06-03 06:03:00,
2013-06-03 02:19:00,63.5,62.0,29.88,SE,142,0.0,12.0,95,0.01,,,0.01,weatherlink.com 1.10,2013-06-03 06:19:00,
2013-06-03 02:34:00,63.2,62.0,29.88,SW,222,3.0,8.0,95,0.01,,,0.02,weatherlink.com 1.10,2013-06-03 06:34:00,
2013-06-03 02:49:00,62.8,61.0,29.88,ESE,121,3.0,7.0,95,0.01,,,0.02,weatherlink.com 1.10,2013-06-03 06:49:00,
2013-06-03 03:04:00,62.6,61.0,29.88,South,173,6.0,10.0,95,0.01,,,0.02,weatherlink.com 1.10,2013-06-03 07:04:00,
2013-06-03 03:19:00,63.2,62.0,29.87,West,262,1.0,13.0,95,0.01,,,0.02,weatherlink.com 1.10,2013-06-03 07:19:00,
2013-06-03 03:34:00,63.5,62.0,29.88,SW,220,1.0,10.0,95,0.00,,,0.02,weatherlink.com 1.10,2013-06-03 07:34:00,
2013-06-03 03:49:00,63.7,63.0,29.89,South,181,2.0,8.0,96,0.01,,,0.00,weatherlink.com 1.10,2013-06-03 07:49:00,
2013-06-03 04:04:00,64.0,63.0,29.88,South,189,1.0,10.0,95,0.01,,,0.00,weatherlink.com 1.10,2013-06-03 08:04:00,
2013-06-03 04:19:00,64.9,64.0,29.88,SE,146,3.0,14.0,96,0.02,,,0.01,weatherlink.com 1.10,2013-06-03 08:19:00,
2013-06-03 04:34:00,65.1,64.0,29.87,WSW,250,1.0,9.0,96,0.02,,,0.01,weatherlink.com 1.10,2013-06-03 08:34:00,
2013-06-03 04:49:00,65.4,64.0,29.88,West,281,3.0,11.0,95,0.01,,,0.01,weatherlink.com 1.10,2013-06-03 08:49:00,
2013-06-03 05:04:00,65.6,64.0,29.88,SSW,200,3.0,7.0,95,0.02,,,0.02,weatherlink.com 1.10,2013-06-03 09:04:00,
2013-06-03 05:19:00,65.9,65.0,29.88,SSW,200,0.0,10.0,95,0.02,,,0.03,weatherlink.com 1.10,2013-06-03 09:19:00,
2013-06-03 05:34:00,65.8,64.0,29.87,East,95,4.0,15.0,95,0.04,,,0.05,weatherlink.com 1.10,2013-06-03 09:34:00,
2013-06-03 05:49:00,65.9,65.0,29.87,West,266,0.0,17.0,95,0.07,,,0.08,weatherlink.com 1.10,2013-06-03 09:49:00,
2013-06-03 06:04:00,65.9,65.0,29.88,West,259,3.0,10.0,95,0.07,,,0.09,weatherlink.com 1.10,2013-06-03 10:04:00,
2013-06-03 06:19:00,66.1,65.0,29.88,WSW,257,6.0,17.0,95,0.08,,,0.11,weatherlink.com 1.10,2013-06-03 10:19:00,
2013-06-03 06:34:00,65.8,64.0,29.88,West,270,3.0,18.0,95,0.07,,,0.12,weatherlink.com 1.10,2013-06-03 10:34:00,
2013-06-03 06:49:00,66.2,65.0,29.89,West,279,2.0,18.0,95,0.05,,,0.13,weatherlink.com 1.10,2013-06-03 10:49:00,
2013-06-03 07:04:00,66.1,65.0,29.89,East,91,4.0,13.0,95,0.04,,,0.14,weatherlink.com 1.10,2013-06-03 11:04:00,
2013-06-03 07:20:00,66.4,65.0,29.89,WNW,285,2.0,11.0,95,0.05,,,0.16,weatherlink.com 1.10,2013-06-03 11:20:00,
2013-06-03 07:34:00,66.2,65.0,29.89,SW,226,3.0,10.0,95,0.06,,,0.18,weatherlink.com 1.10,2013-06-03 11:34:00,
2013-06-03 07:49:00,66.1,65.0,29.89,SE,141,2.0,8.0,95,0.05,,,0.18,weatherlink.com 1.10,2013-06-03 11:49:00,
2013-06-03 08:04:00,66.1,65.0,29.89,SW,218,2.0,5.0,95,0.04,,,0.18,weatherlink.com 1.10,2013-06-03 12:04:00,
2013-06-03 08:19:00,65.9,65.0,29.89,SW,216,2.0,9.0,95,0.02,,,0.18,weatherlink.com 1.10,2013-06-03 12:19:00,
2013-06-03 08:34:00,65.8,64.0,29.89,West,272,2.0,5.0,95,0.00,,,0.18,weatherlink.com 1.10,2013-06-03 12:34:00,
2013-06-03 08:49:00,65.9,65.0,29.89,West,260,3.0,6.0,95,0.00,,,0.18,weatherlink.com 1.10,2013-06-03 12:49:00,
2013-06-03 09:04:00,64.9,63.0,29.89,South,190,1.0,8.0,93,0.00,,,0.18,weatherlink.com 1.10,2013-06-03 13:04:00,
2013-06-03 09:19:00,64.4,63.0,29.89,SSE,153,1.0,5.0,94,0.00,,,0.18,weatherlink.com 1.10,2013-06-03 13:19:00,
2013-06-03 09:34:00,64.3,63.0,29.89,SE,124,1.0,6.0,95,0.00,,,0.18,weatherlink.com 1.10,2013-06-03 13:34:00,
2013-06-03 09:49:00,63.8,62.0,29.88,South,172,4.0,8.0,94,0.00,,,0.18,weatherlink.com 1.10,2013-06-03 13:49:00,
2013-06-03 10:04:00,62.9,61.0,29.89,SSW,198,7.0,7.0,94,0.02,,,0.20,weatherlink.com 1.10,2013-06-03 14:04:00,
2013-06-03 10:19:00,62.6,61.0,29.88,SSW,193,2.0,7.0,95,0.05,,,0.23,weatherlink.com 1.10,2013-06-03 14:19:00,
2013-06-03 10:34:00,62.9,62.0,29.89,SSW,203,1.0,13.0,95,0.08,,,0.26,weatherlink.com 1.10,2013-06-03 14:34:00,
2013-06-03 10:49:00,63.0,62.0,29.88,SW,233,1.0,8.0,95,0.11,,,0.29,weatherlink.com 1.10,2013-06-03 14:49:00,
2013-06-03 11:04:00,63.1,62.0,29.88,SSW,210,0.0,8.0,96,0.13,,,0.33,weatherlink.com 1.10,2013-06-03 15:04:00,
2013-06-03 11:19:00,63.8,63.0,29.88,South,181,1.0,5.0,96,0.15,,,0.38,weatherlink.com 1.10,2013-06-03 15:19:00,
2013-06-03 11:34:00,64.1,63.0,29.87,SW,222,1.0,7.0,96,0.17,,,0.43,weatherlink.com 1.10,2013-06-03 15:34:00,
2013-06-03 11:49:00,64.0,63.0,29.87,WNW,290,5.0,9.0,96,0.19,,,0.48,weatherlink.com 1.10,2013-06-03 15:49:00,
2013-06-03 12:04:00,65.3,64.0,29.87,West,264,6.0,11.0,96,0.20,,,0.53,weatherlink.com 1.10,2013-06-03 16:04:00,
2013-06-03 12:19:00,66.4,65.0,29.87,ESE,119,0.0,17.0,96,0.17,,,0.55,weatherlink.com 1.10,2013-06-03 16:19:00,
2013-06-03 12:34:00,66.9,66.0,29.88,SE,124,2.0,12.0,96,0.13,,,0.56,weatherlink.com 1.10,2013-06-03 16:34:00,
2013-06-03 12:49:00,67.8,67.0,29.88,West,263,9.0,10.0,96,0.08,,,0.56,weatherlink.com 1.10,2013-06-03 16:49:00,
2013-06-03 13:04:00,67.1,65.0,29.88,SW,234,3.0,12.0,94,0.03,,,0.56,weatherlink.com 1.10,2013-06-03 17:04:00,
2013-06-03 13:20:00,66.7,65.0,29.88,NW,311,4.0,11.0,94,0.01,,,0.56,weatherlink.com 1.10,2013-06-03 17:20:00,
2013-06-03 13:34:00,66.3,65.0,29.88,SSE,150,1.0,10.0,94,0.00,,,0.56,weatherlink.com 1.10,2013-06-03 17:34:00,
2013-06-03 13:50:00,65.8,64.0,29.87,West,274,2.0,11.0,94,0.01,,,0.57,weatherlink.com 1.10,2013-06-03 17:50:00,
2013-06-03 14:05:00,65.7,64.0,29.86,SSE,153,2.0,7.0,94,0.01,,,0.57,weatherlink.com 1.10,2013-06-03 18:05:00,
2013-06-03 14:20:00,64.6,63.0,29.86,East,80,2.0,8.0,94,0.01,,,0.57,weatherlink.com 1.10,2013-06-03 18:20:00,
2013-06-03 14:35:00,64.1,62.0,29.86,ESE,109,5.0,7.0,94,0.01,,,0.57,weatherlink.com 1.10,2013-06-03 18:35:00,
2013-06-03 14:50:00,63.9,63.0,29.87,SE,141,2.0,8.0,95,0.00,,,0.57,weatherlink.com 1.10,2013-06-03 18:50:00,
2013-06-03 15:05:00,63.9,63.0,29.86,NW,305,1.0,5.0,95,0.00,,,0.57,weatherlink.com 1.10,2013-06-03 19:05:00,
2013-06-03 15:20:00,64.6,64.0,29.86,WSW,240,3.0,10.0,96,0.00,,,0.57,weatherlink.com 1.10,2013-06-03 19:20:00,
2013-06-03 15:35:00,63.7,62.0,29.86,SSW,195,1.0,8.0,95,0.00,,,0.57,weatherlink.com 1.10,2013-06-03 19:35:00,
2013-06-03 15:50:00,63.4,62.0,29.86,SSW,196,0.0,10.0,95,0.01,,,0.58,weatherlink.com 1.10,2013-06-03 19:50:00,
2013-06-03 16:05:00,62.9,62.0,29.86,WNW,289,4.0,10.0,95,0.03,,,0.60,weatherlink.com 1.10,2013-06-03 20:05:00,
2013-06-03 16:20:00,62.7,61.0,29.86,SW,224,1.0,7.0,95,0.05,,,0.62,weatherlink.com 1.10,2013-06-03 20:20:00,
2013-06-03 16:35:00,62.6,62.0,29.86,WSW,250,1.0,14.0,96,0.06,,,0.63,weatherlink.com 1.10,2013-06-03 20:35:00,
2013-06-03 16:50:00,62.9,62.0,29.86,WSW,255,10.0,11.0,96,0.07,,,0.65,weatherlink.com 1.10,2013-06-03 20:50:00,
2013-06-03 17:05:00,63.1,62.0,29.85,WSW,242,2.0,9.0,96,0.07,,,0.67,weatherlink.com 1.10,2013-06-03 21:05:00,
2013-06-03 17:20:00,63.5,62.0,29.85,West,277,4.0,13.0,96,0.07,,,0.69,weatherlink.com 1.10,2013-06-03 21:20:00,
2013-06-03 17:35:00,63.8,63.0,29.85,West,267,4.0,6.0,96,0.09,,,0.72,weatherlink.com 1.10,2013-06-03 21:35:00,
2013-06-03 17:50:00,64.0,63.0,29.85,SE,133,3.0,13.0,96,0.11,,,0.76,weatherlink.com 1.10,2013-06-03 21:50:00,
2013-06-03 18:05:00,63.9,63.0,29.85,North,360,2.0,9.0,96,0.14,,,0.81,weatherlink.com 1.10,2013-06-03 22:05:00,
2013-06-03 18:20:00,64.2,63.0,29.84,WNW,298,6.0,14.0,96,0.16,,,0.85,weatherlink.com 1.10,2013-06-03 22:20:00,
2013-06-03 18:35:00,64.6,64.0,29.84,ENE,64,3.0,11.0,96,0.16,,,0.88,weatherlink.com 1.10,2013-06-03 22:35:00,
2013-06-03 18:50:00,64.6,64.0,29.84,West,266,2.0,11.0,96,0.12,,,0.88,weatherlink.com 1.10,2013-06-03 22:50:00,
2013-06-03 19:05:00,64.5,63.0,29.85,SE,126,0.0,7.0,96,0.07,,,0.88,weatherlink.com 1.10,2013-06-03 23:05:00,
2013-06-03 19:20:00,64.0,63.0,29.85,WSW,250,0.0,7.0,95,0.03,,,0.88,weatherlink.com 1.10,2013-06-03 23:20:00,
2013-06-03 19:35:00,63.3,62.0,29.85,South,175,0.0,5.0,95,0.00,,,0.88,weatherlink.com 1.10,2013-06-03 23:35:00,
2013-06-03 19:50:00,62.9,62.0,29.85,SSW,196,2.0,7.0,95,0.00,,,0.88,weatherlink.com 1.10,2013-06-03 23:50:00,
2013-06-03 20:05:00,62.5,61.0,29.85,SE,133,1.0,6.0,96,0.00,,,0.88,weatherlink.com 1.10,2013-06-04 00:05:00,
2013-06-03 20:21:00,62.5,61.0,29.85,SE,136,1.0,8.0,96,0.00,,,0.88,weatherlink.com 1.10,2013-06-04 00:21:00,
2013-06-03 20:35:00,62.5,61.0,29.85,South,188,0.0,3.0,96,0.00,,,0.88,weatherlink.com 1.10,2013-06-04 00:35:00,
2013-06-03 20:50:00,62.8,62.0,29.84,SSE,168,0.0,3.0,96,0.00,,,0.88,weatherlink.com 1.10,2013-06-04 00:50:00,
2013-06-03 21:05:00,63.2,62.0,29.84,SE,134,0.0,3.0,97,0.00,,,0.88,weatherlink.com 1.10,2013-06-04 01:05:00,
2013-06-03 21:20:00,63.6,63.0,29.84,WNW,294,1.0,5.0,96,0.00,,,0.88,weatherlink.com 1.10,2013-06-04 01:20:00,
2013-06-03 21:35:00,64.1,63.0,29.85,SW,222,0.0,3.0,97,0.00,,,0.88,weatherlink.com 1.10,2013-06-04 01:35:00,
2013-06-03 21:50:00,64.2,63.0,29.85,North,3,0.0,2.0,97,0.00,,,0.88,weatherlink.com 1.10,2013-06-04 01:50:00,
2013-06-03 22:05:00,64.2,63.0,29.84,West,264,1.0,3.0,97,0.00,,,0.88,weatherlink.com 1.10,2013-06-04 02:05:00,
2013-06-03 22:20:00,63.4,62.0,29.84,South,179,0.0,2.0,96,0.00,,,0.88,weatherlink.com 1.10,2013-06-04 02:20:00,
2013-06-03 22:35:00,63.0,62.0,29.84,NNW,340,1.0,2.0,96,0.00,,,0.88,weatherlink.com 1.10,2013-06-04 02:35:00,
2013-06-03 22:50:00,63.6,63.0,29.84,West,260,0.0,5.0,97,0.00,,,0.88,weatherlink.com 1.10,2013-06-04 02:50:00,
2013-06-03 23:05:00,63.2,62.0,29.83,West,271,1.0,7.0,97,0.00,,,0.88,weatherlink.com 1.10,2013-06-04 03:05:00,
2013-06-03 23:20:00,62.9,62.0,29.83,West,270,3.0,9.0,96,0.00,,,0.88,weatherlink.com 1.10,2013-06-04 03:20:00,
2013-06-03 23:35:00,62.5,62.0,29.83,WNW,297,6.0,8.0,97,0.00,,,0.88,weatherlink.com 1.10,2013-06-04 03:35:00,
2013-06-03 23:50:00,61.9,61.0,29.83,WNW,283,2.0,8.0,97,0.00,,,0.88,weatherlink.com 1.10,2013-06-04 03:50:00,